CT1ETE-13 Weather Reports


time (UTC)temp
C
wind
direction
speed
KPH
gust
KPH
rain 1hr
cm
rain 24hr
cm
rain mn
cm
humidity
%
barometer
mb
20260508094038 15 198 8.0 20.9 0.00 0.05 0.05 70 1009.3
20260508092537 15 100 4.8 14.5 0.00 0.05 0.05 79 1009.3
20260508082531 12 162 4.8 14.5 0.00 0.05 0.05 86 1009.0
20260508081030 11 153 8.0 14.5 0.00 0.05 0.05 86 1008.9
20260508071029 11 194 1.6 6.4 0.00 0.05 0.05 80 1008.5
20260508061027 10 121 11.3 17.7 0.05 0.05 0.05 83 1008.2
20260508055527 10 87 11.3 17.7 0.05 0.05 0.05 85 1007.8
20260508050122 11 201 3.2 8.0 0.00 0.00 0.00 86 1008.1
20260508032519 11 112 0.0 0.0 0.00 0.00 0.00 86 1007.9
20260508022531 10 111 3.2 6.4 0.00 0.00 0.00 86 1008.3
20260508021013 11 112 3.2 4.8 0.00 0.00 0.00 85 1008.4
20260508004005 11 105 1.6 3.2 0.00 0.00 0.00 85 1009.3
20260507235506 11 103 3.2 6.4 0.00 0.00 0.00 85 1009.6
20260507224003 11 103 3.2 6.4 0.00 0.00 0.00 84 1010.2
20260507210949 11 246 1.6 6.4 0.00 0.00 0.00 83 1010.7
20260507190939 13 232 8.0 19.3 0.00 0.00 0.00 75 1009.5
20260507185438 14 236 11.3 20.9 0.00 0.00 0.00 73 1009.3
20260507175439 16 224 14.5 22.5 0.00 0.00 0.00 65 1009.0
20260507165439 17 242 19.3 32.2 0.00 0.00 0.00 60 1008.9
20260507162438 18 246 20.9 35.4 0.00 0.00 0.00 60 1008.8
20260507153938 18 224 17.7 29.0 0.00 0.00 0.00 59 1008.6
20260507120935 17 244 17.7 30.6 0.00 0.00 0.00 68 1009.7
20260507113935 17 244 14.5 24.1 0.00 0.00 0.00 69 1009.8